Location: Claflin County Park
(44.8478°N, 87.5507°W)
Time: 23:31:46
(UTC+00:00)

USA 234 - Visible Passes

Search period start: 12 March 2026 00:00
Search period end: 22 March 2026 00:00
Orbit: 1102 x 1106 km, 123.0° (Epoch: 4 January)

Date Brightness Start Highest point End Pass type
(mag) Time Alt. Az. Time Alt. Az. Time Alt. Az.
12 Mar 4.4 00:38:51 10° ENE 00:44:29 32° N 00:50:07 10° NW visible
12 Mar 3.5 02:25:33 47° ENE 02:26:39 52° NNE 02:32:59 10° NW visible
12 Mar 4.7 04:12:53 30° WNW 04:12:53 30° WNW 04:16:05 10° NW visible
13 Mar 4.1 01:40:53 23° ENE 01:44:14 38° NNE 01:50:11 10° NW visible
13 Mar 3.7 03:28:13 58° NW 03:28:13 58° NW 03:33:21 10° NW visible
13 Mar 5.7 05:15:33 11° WNW 05:15:33 11° WNW 05:15:54 10° WNW visible
14 Mar 4.4 00:56:21 10° ENE 01:01:57 32° N 01:07:35 10° NW visible
14 Mar 3.5 02:43:33 51° NE 02:44:08 53° NNE 02:50:28 10° NW visible
14 Mar 4.9 04:30:53 26° WNW 04:30:53 26° WNW 04:33:34 10° NW visible
15 Mar 4.5 00:14:11 10° NE 00:19:45 31° N 00:25:19 10° WNW visible
15 Mar 4.1 01:58:52 26° ENE 02:01:44 38° NNE 02:07:40 10° NW visible
15 Mar 3.9 03:46:12 50° NW 03:46:12 50° NW 03:50:50 10° NW visible
16 Mar 4.4 01:14:10 11° ENE 01:19:27 32° N 01:25:05 10° NW visible
16 Mar 3.6 03:01:30 53° NNE 03:01:38 53° NNE 03:07:57 10° NW visible
16 Mar 5.1 04:48:50 23° WNW 04:48:50 23° WNW 04:51:04 10° NW visible
17 Mar 4.6 00:31:40 10° NE 00:37:13 31° N 00:42:48 10° WNW visible
17 Mar 4.1 02:16:47 29° ENE 02:19:12 38° NNE 02:25:09 10° NW visible
17 Mar 4.2 04:04:07 43° NW 04:04:07 43° NW 04:08:19 10° NW visible
18 Mar 4.5 01:32:05 13° ENE 01:36:56 32° N 01:42:33 10° NW visible
18 Mar 3.7 03:19:25 53° NNE 03:19:25 53° NNE 03:25:27 10° NW visible
18 Mar 5.2 05:06:44 20° WNW 05:06:44 20° WNW 05:08:32 10° NW visible
19 Mar 4.6 00:49:09 10° NE 00:54:43 31° N 01:00:16 10° WNW visible
19 Mar 4.2 02:34:42 31° NE 02:36:42 38° NNE 02:42:38 10° NW visible
19 Mar 4.4 04:22:01 38° NW 04:22:01 38° NW 04:25:48 10° NW visible
20 Mar 4.5 01:49:57 15° ENE 01:54:25 32° N 02:00:03 10° NW visible
20 Mar 3.8 03:37:17 51° N 03:37:17 51° N 03:42:56 10° NW visible
20 Mar 5.3 05:24:36 17° WNW 05:24:36 17° WNW 05:26:02 10° NW visible
21 Mar 4.6 01:06:38 10° NE 01:12:11 31° N 01:17:45 10° WNW visible
21 Mar 4.1 02:52:31 33° NE 02:54:10 38° NNE 03:00:07 10° NW visible
21 Mar 4.5 04:39:51 34° NW 04:39:51 34° NW 04:43:17 10° NW visible
